Temp
16 14 15 17 15 18 17 15 14 15 17 16 18 18 18 18 17 19 20 19 19 18 19 20 20 21 20 18 16 15 13 12 11 9 8 8 9 10 11 12 12 12 11 11
14 13 15 17 16 15 14 15 16 17 17 15 15 16 18 18 19 19 19 20 20 19 19 19 19 18 18 20 17 14 13 12 11 9 8 9 8 8 10 11 11 11 11 11
16 17 15 15 16 16 14 14 16 16 15 14 13 16 15 16 16 18 18 18 17 17 18 18 15 16 17 16 16 15 14 12 10 9 8 9 8 8 7 7 9 10 10 10
14 15 16 14 15 15 17 15 15 15 14 14 16 16 17 17 18 17 17 16 15 16 15 14 13 12 16 19 16 14 12 11 10 10 8 8 8 8 8 7 9 10 10 10
16 16 15 14 15 14 16 17 15 15 13 12 14 13 19 17 17 17 17 16 16 15 14 14 14 14 15 15 15 14 12 11 9 9 8 8 8 8 9 8 7 8 8 8
13 14 15 15 14 14 15 16 14 10 11 12 14 14 17 16 18 21 19 18 17 16 15 14 14 13 13 11 10 11 10 9 9 8 8 8 8 8 8 7 6 6 6 7
15 14 14 15 16 14 15 14 12 12 9 14 13 12 19 20 19 19 18 17 17 14 13 11 12 9 9 8 7 7 8 7 8 8 7 8 8 8 9 8 6 4 5 5
14 16 15 13 15 15 12 13 12 13 12 17 9 14 19 17 18 16 16 16 14 13 12 11 10 7 8 7 6 7 7 7 8 8 7 7 8 7 8 8 7 6 6 7
13 13 14 13 14 15 13 13 14 14 9 10 17 16 18 17 16 17 17 15 14 13 13 13 11 9 10 8 8 8 8 8 8 8 7 7 7 7 7 7 7 8 8 7
16 15 15 15 13 13 14 14 14 11 13 11 14 15 17 18 18 17 17 16 12 14 17 14 11 10 10 8 8 7 8 8 8 8 8 8 7 8 7 7 8 8 8 7
14 13 13 13 12 13 13 13 12 13 13 13 14 15 19 18 17 15 14 14 14 16 12 9 8 8 7 8 8 8 8 7 7 6 6 6 6 6 6 6 7 7 7 7
13 11 11 12 12 13 13 15 14 13 13 11 14 14 16 17 18 18 13 10 6 6 6 6 6 6 6 6 6 6 7 7 8 7 7 7 6 5 5 5 5 6 6 6
12 11 11 11 12 9 10 12 13 13 12 11 11 13 16 17 16 5 6 6 6 6 6 6 6 6 5 5 5 5 5 5 6 6 7 6 6 5 5 5 5 4 4 5
10 9 10 11 13 12 11 12 11 10 11 11 11 11 13 12 9 5 5 5 5 5 5 5 5 5 5 4 4 4 4 4 3 3 4 5 5 5 5 4 4 3 3 3
9 10 10 11 10 8 8 8 9 9 10 9 10 11 9 4 3 3 3 4 4 4 4 4 4 4 3 3 3 3 3 2 1 2 2 3 2 3 3 3 4 3 2 3
7 7 7 7 8 8 8 9 8 9 9 9 9 8 3 3 3 3 2 1 3 3 3 4 4 3 3 2 2 1 1 1 0 0 1 1 2 2 3 3 3 2 2 1
6 6 6 6 7 6 6 7 8 9 10 6 6 2 1 1 3 4 3 2 4 2 2 3 3 2 2 2 1 1 0 -0 -1 -0 -0 -0 0 1 1 1 1 0 0 -0
5 5 4 6 4 5 7 6 5 4 4 3 2 0 0 1 2 3 3 3 3 3 2 2 1 1 0 -0 -0 -0 -1 -1 -1 -1 -1 -1 -1 -1 0 0 -0 -1 -1 -1
5 4 1 1 -2 4 7 3 3 3 2 1 2 3 2 1 0 2 3 2 1 1 1 0 -1 -2 -2 -2 -2 -2 -3 -2 -1 -1 -2 -2 -2 -2 -1 -2 -1 -2 -2 -3
4 4 4 -3 2 -3 3 2 3 3 1 -1 -1 0 -0 0 -1 1 2 0 -0 -0 -1 -2 -2 -3 -3 -3 -3 -4 -4 -4 -3 -3 -4 -4 -3 -3 -2 -2 -2 -3 -3 -3
-6 -8 -0 -2 -3 -3 -1 1 2 -2 -1 -3 -2 -1 -1 -1 -0 0 0 -1 -1 -1 -2 -2 -2 -3 -3 -3 -4 -5 -5 -5 -5 -6 -7 -4 -4 -3 -3 -3 -3 -4 -4 -4
0 -5 -8 -10 -7 -3 2 2 1 1 1 0 0 1 0 0 -0 -0 -1 -2 -2 -3 -3 -3 -3 -4 -4 -5 -6 -6 -6 -6 -7 -8 -7 -7 -7 -5 -5 -4 -5 -5 -5 -5
-2 -1 -4 -3 -3 1 2 1 3 1 -1 -0 0 1 -0 -1 -1 -1 -2 -2 -3 -3 -3 -4 -6 -6 -6 -7 -8 -8 -8 -9 -9 -9 -9 -9 -8 -7 -6 -6 -7 -7 -7 -7
-0 1 1 1 2 2 2 3 1 1 2 2 1 0 -2 -2 -2 -2 -2 -3 -3 -4 -5 -6 -7 -7 -8 -8 -9 -9 -10 -11 -11 -12 -12 -11 -11 -9 -6 -7 -7 -8 -8 -8
1 -1 -2 0 2 2 2 2 2 2 1 -0 -1 -2 -3 -4 -3 -3 -4 -5 -5 -6 -6 -7 -8 -8 -9 -9 -10 -11 -12 -13 -14 -14 -13 -13 -12 -10 -8 -7 -7 -8 -7 -7
1 1 1 0 2 2 3 3 2 1 -0 -2 -4 -5 -5 -5 -6 -6 -7 -7 -7 -8 -8 -9 -10 -10 -11 -12 -13 -13 -14 -15 -15 -15 -15 -14 -13 -12 -10 -8 -7 -8 -7 -8
Height
799 811 814 796 803 795 802 808 809 798 783 785 772 765 762 756 755 738 733 732 722 718 707 705 705 707 708 710 712 715 718 722 728 734 739 748 749 756 764 769 775 780 785 789
810 813 794 791 797 805 808 806 799 783 779 786 776 761 753 747 735 731 721 718 717 710 705 699 701 703 703 701 700 704 708 714 719 724 730 739 744 747 753 759 766 772 777 783
796 788 789 797 799 800 804 808 790 790 784 782 778 753 754 736 728 723 718 709 714 709 704 698 701 699 697 693 693 694 697 702 709 717 726 732 740 746 750 752 758 764 770 775
797 786 788 798 798 795 793 787 789 791 793 795 776 749 743 732 727 722 714 716 711 708 707 701 693 688 686 684 685 687 693 700 703 706 711 717 720 728 731 738 746 753 760 765
787 786 788 792 787 788 781 775 784 787 794 794 787 792 729 728 729 721 714 709 708 704 704 699 694 686 682 680 678 682 686 691 700 705 706 705 711 717 723 733 740 747 753 759
787 782 783 779 777 780 777 778 786 805 801 798 776 779 738 734 720 708 706 709 706 707 703 697 692 687 681 679 680 679 680 687 695 700 706 707 710 712 717 726 732 737 746 753
782 781 774 772 775 779 780 790 809 808 823 785 770 779 727 711 710 709 709 705 701 706 709 702 691 685 682 681 682 682 684 684 689 697 701 703 705 706 708 711 721 729 735 742
785 773 768 771 768 770 784 784 799 800 798 757 794 759 711 707 702 706 706 704 704 707 709 704 694 690 686 683 685 681 683 686 685 688 692 699 705 709 709 709 711 716 726 730
782 772 762 765 763 761 772 780 768 774 796 798 747 735 707 703 707 702 705 710 709 707 699 699 693 693 687 685 682 683 684 686 687 689 694 696 697 701 705 707 712 715 717 724
760 763 754 753 759 762 760 761 774 789 780 785 750 738 723 698 705 704 706 711 712 702 695 689 697 702 701 698 695 695 691 693 690 690 688 688 693 694 696 701 706 708 712 718
767 771 762 763 763 760 764 761 763 767 766 758 751 733 698 702 704 711 711 713 709 704 709 712 714 712 707 704 700 698 696 696 697 701 702 698 695 695 695 698 699 701 706 709
770 771 766 759 750 747 752 746 749 756 749 752 734 727 714 706 702 704 721 730 737 737 733 728 720 719 716 710 704 704 702 697 696 694 695 694 694 694 697 695 696 696 697 701
766 763 758 758 751 760 760 752 750 749 746 742 744 727 715 714 710 751 749 749 748 743 733 727 723 718 717 716 714 709 707 705 701 699 693 690 688 688 688 685 688 693 694 693
771 771 759 748 741 746 751 749 749 760 743 734 735 733 725 730 738 754 752 750 750 750 744 734 729 726 721 719 715 712 709 706 702 698 694 691 684 680 679 680 679 684 686 688
772 758 757 747 754 764 766 769 759 750 745 747 736 732 744 764 769 767 763 759 755 751 748 741 735 731 727 718 714 712 710 710 705 694 688 682 677 676 671 671 671 673 677 673
774 772 771 767 758 757 754 752 747 741 741 738 736 740 769 770 771 769 767 763 760 754 751 742 739 736 730 723 717 713 707 705 699 693 689 685 678 667 667 663 665 663 665 669
778 775 775 762 760 767 765 748 745 734 725 742 743 765 773 769 763 759 758 758 754 755 753 744 738 739 730 727 721 717 711 704 698 692 686 681 676 669 664 662 658 654 657 659
774 777 777 761 775 769 738 740 746 752 755 758 764 769 768 764 760 758 755 756 754 751 746 741 740 738 735 726 721 715 710 702 693 689 686 682 675 668 662 657 653 651 651 651
765 771 790 792 808 758 738 755 758 755 763 763 761 758 759 760 760 754 750 750 749 744 740 739 738 734 728 724 717 710 703 696 690 685 681 676 672 671 661 655 648 647 648 649
763 763 766 808 776 809 753 755 753 755 766 764 764 761 760 759 762 751 745 744 742 740 739 736 733 730 727 720 715 710 703 698 691 685 683 680 676 670 664 651 643 647 645 643
811 821 783 793 801 786 764 755 751 786 774 763 759 756 756 757 750 742 739 740 737 734 732 729 726 722 718 714 710 705 699 697 688 683 682 677 666 660 653 647 642 640 641 637
778 807 825 840 823 796 750 749 760 754 748 749 748 745 745 742 740 739 737 734 733 731 727 724 721 716 712 710 709 703 697 692 684 681 674 665 660 653 644 646 643 635 636 634
787 773 794 787 777 749 747 748 741 742 747 743 741 737 737 737 735 733 732 729 726 725 722 719 717 711 705 703 701 696 690 689 681 673 664 658 655 649 642 643 638 634 626 630
762 759 759 759 742 745 741 737 737 735 735 731 731 730 732 732 730 729 728 724 721 718 716 713 709 704 697 694 691 688 683 680 674 667 659 653 649 640 637 631 631 625 624 620
751 757 758 748 737 738 734 731 729 728 727 727 727 727 728 730 728 728 724 721 717 713 708 706 702 696 688 685 680 678 674 672 666 661 655 649 643 636 628 622 620 616 613 614
740 737 743 738 726 727 724 720 722 724 725 726 728 728 729 730 728 726 720 717 713 707 702 698 693 689 681 677 670 668 667 664 658 650 643 639 633 627 622 615 607 605 606 605
Wind_Speed
2 4 9 20 14 1 3 5 11 8 9 4 22 22 17 16 13 25 22 18 21 20 24 29 26 24 25 29 33 37 40 42 43 42 42 39 47 49 46 47 44 42 41 39
3 7 15 0 2 6 6 13 17 14 15 5 13 21 18 20 23 22 24 22 19 19 18 18 17 16 20 28 32 34 40 41 44 42 40 28 34 40 48 49 46 45 43 40
11 7 4 5 3 8 7 7 16 15 6 5 10 13 8 10 8 15 20 20 12 18 18 19 8 13 19 26 30 34 39 42 41 40 36 30 27 24 38 42 45 46 44 43
6 4 7 4 6 10 16 11 13 10 6 5 5 14 8 9 10 7 14 9 12 12 9 10 11 9 19 28 27 31 32 36 39 44 43 42 34 26 36 40 49 50 48 47
8 4 4 5 10 7 10 4 6 3 4 5 2 4 3 4 8 11 9 8 8 6 7 10 12 17 24 20 21 25 29 33 35 42 42 44 36 32 29 35 42 46 48 47
7 1 5 8 7 9 2 2 3 4 2 6 11 9 4 4 5 1 8 7 9 7 11 15 15 17 20 14 12 19 26 30 33 37 40 41 35 31 30 36 38 44 46 46
1 5 3 4 2 1 3 4 4 3 1 9 3 3 13 5 10 7 10 9 7 8 10 11 14 14 20 13 6 12 20 25 30 33 38 41 39 41 41 42 37 39 42 47
4 13 7 5 9 8 8 9 6 7 6 13 2 9 13 8 6 8 8 7 5 6 7 8 10 8 17 11 7 11 17 22 26 33 37 38 38 37 37 40 41 42 43 48
5 9 2 5 4 5 5 5 3 2 0 3 11 15 14 6 6 4 5 7 8 9 7 7 10 11 12 11 8 12 15 20 24 29 32 36 39 41 39 38 39 39 41 45
1 11 4 2 4 4 6 3 1 2 3 6 7 8 13 20 10 11 12 14 11 11 16 14 12 17 25 19 16 13 12 18 22 27 32 37 40 43 43 40 41 41 42 42
2 2 7 4 5 8 2 3 4 3 6 9 12 10 16 16 12 9 8 9 11 17 18 15 14 24 25 27 27 22 17 18 22 24 27 30 33 36 39 42 43 44 42 42
6 7 7 14 6 5 5 14 11 11 8 6 12 13 17 24 21 22 11 17 17 15 15 14 13 17 22 27 30 30 34 31 31 29 30 32 35 34 36 41 45 45 44 43
1 4 4 2 3 4 2 3 4 11 10 17 13 11 11 17 20 18 15 16 15 16 18 17 17 17 22 24 25 25 30 31 29 30 33 33 34 35 41 44 44 45 45 47
3 5 11 12 15 10 10 12 11 11 7 12 11 15 18 12 16 17 13 14 15 16 18 16 16 15 23 25 26 26 26 30 32 31 26 30 32 35 40 41 40 43 44 44
2 11 12 14 9 8 9 16 19 21 18 14 18 23 8 12 14 12 13 15 15 17 18 17 16 16 24 26 28 29 27 28 29 27 31 31 27 32 34 38 39 41 44 45
4 3 6 17 21 16 19 17 19 20 21 16 17 9 4 5 6 10 7 12 16 16 15 14 14 17 20 26 28 30 29 34 35 31 29 32 33 27 35 35 38 40 40 40
2 3 3 17 12 8 11 20 19 19 21 1 9 3 0 3 6 8 6 10 11 12 13 12 13 15 21 26 28 29 30 30 29 29 31 33 35 33 29 31 32 35 38 36
7 8 4 11 9 21 8 4 5 7 4 6 5 2 6 5 5 9 4 4 9 9 10 10 12 19 25 28 27 28 31 31 27 26 26 32 37 34 33 30 30 32 31 35
17 9 3 4 7 8 10 4 3 3 5 4 3 6 8 7 6 5 4 2 7 10 8 13 16 19 23 26 28 30 32 30 29 29 29 33 36 38 33 28 28 29 29 28
3 14 9 2 4 6 2 3 4 2 4 6 7 8 7 2 4 7 4 5 8 9 13 15 19 19 18 24 24 26 28 28 27 28 32 34 36 37 36 30 25 28 28 27
3 2 9 7 4 7 4 5 0 5 5 5 5 6 7 6 6 8 10 8 11 15 19 20 22 17 21 21 25 25 25 26 29 31 35 34 31 35 36 32 25 26 27 23
5 4 4 3 2 7 4 3 4 5 4 5 4 11 11 10 10 10 11 11 8 10 19 21 18 22 25 23 21 23 26 29 30 32 33 33 34 33 31 32 31 23 25 24
2 6 4 7 6 4 4 8 14 4 6 8 7 12 10 9 10 11 11 13 12 16 19 20 19 25 29 24 21 23 28 28 31 33 35 35 34 32 29 26 25 22 20 19
6 3 9 13 17 17 17 18 8 8 14 15 12 12 6 10 12 12 12 13 14 20 20 21 21 24 28 28 27 26 29 27 28 31 34 34 33 33 29 24 24 21 19 20
8 5 6 13 18 14 16 16 16 17 14 10 6 5 7 5 11 11 12 14 14 22 26 22 21 24 32 33 34 33 31 30 30 30 31 31 29 29 29 27 26 25 27 26
9 17 10 12 20 16 17 19 9 7 5 4 4 5 4 5 10 12 15 18 21 22 27 25 28 29 34 34 36 35 33 31 31 34 31 26 26 27 27 27 25 26 30 26
Wind_Direction
192 135 197 221 203 262 186 245 254 264 264 306 280 277 272 270 269 277 274 265 268 265 273 277 273 269 257 250 243 234 226 220 211 201 200 207 213 217 219 220 219 218 217 215
48 227 230 273 153 233 250 265 272 274 262 246 270 273 278 263 258 259 270 277 274 283 284 281 278 260 246 249 238 231 228 219 212 202 202 204 204 215 217 217 217 217 217 216
215 222 206 187 204 249 219 235 265 268 311 250 295 281 232 268 254 255 263 261 266 265 278 293 307 261 260 248 238 231 226 219 209 204 196 198 199 210 212 215 216 216 217 217
237 271 200 147 212 214 267 228 263 278 346 269 15 296 201 240 267 237 256 281 265 292 298 278 284 259 244 266 251 233 224 218 211 206 197 193 196 195 209 208 213 214 215 215
244 188 169 179 222 152 237 191 242 217 221 334 262 273 288 104 256 269 294 268 280 294 276 297 305 297 297 276 252 233 220 215 211 208 203 196 197 202 210 203 211 214 214 215
241 316 184 220 220 191 71 94 69 54 65 284 190 186 23 152 209 328 312 270 351 323 334 321 317 323 310 309 264 221 209 207 207 207 208 206 204 199 195 201 204 209 214 213
264 214 237 176 229 120 147 85 315 325 96 243 332 201 239 287 259 258 266 272 271 351 326 313 342 348 343 326 273 211 204 199 203 209 213 212 211 210 209 205 199 200 206 212
217 285 178 169 194 201 187 169 172 231 265 284 118 257 268 216 291 272 245 246 295 331 297 291 1 356 339 328 264 205 209 212 208 211 215 217 217 219 216 216 208 209 211 212
190 258 186 174 216 168 177 179 219 303 99 286 267 273 294 283 282 247 250 292 319 318 326 327 354 344 342 309 254 231 225 223 221 220 223 224 221 221 223 222 222 222 220 220
275 285 201 251 153 212 175 167 270 352 255 245 257 274 261 283 287 295 304 321 333 315 326 352 8 360 5 350 332 302 269 259 245 237 230 228 230 227 226 226 226 224 224 222
54 83 270 348 203 193 179 220 188 246 208 249 264 255 272 289 318 315 334 321 313 334 6 24 22 19 22 17 8 350 328 302 290 278 265 252 244 236 232 233 231 229 227 221
220 219 215 239 226 234 195 255 245 238 247 244 263 262 290 297 304 311 16 22 30 13 3 7 16 14 17 14 14 11 6 1 340 313 284 268 257 249 245 242 239 233 229 225
41 245 269 273 300 37 207 259 277 285 266 252 266 275 295 296 314 27 28 24 12 5 4 3 5 8 9 8 5 4 360 0 356 334 307 283 263 256 254 248 243 240 234 230
191 240 255 263 268 276 265 273 289 265 255 278 267 296 286 321 334 358 19 26 14 5 357 357 357 357 357 355 357 355 351 350 346 343 328 286 274 266 260 252 243 241 236 232
328 271 272 274 300 305 300 288 284 268 271 268 291 288 338 14 3 8 21 14 11 0 354 351 349 349 342 346 347 347 344 339 338 342 341 332 299 279 263 252 249 242 238 232
164 282 329 299 292 295 285 275 263 275 277 264 260 272 32 35 350 9 10 10 353 349 336 339 343 337 337 337 337 336 339 336 338 339 340 339 337 312 282 263 251 243 239 232
218 270 238 270 286 309 281 253 255 254 265 255 264 108 281 293 327 322 303 335 338 330 317 312 338 324 331 329 331 329 329 330 331 333 335 341 341 330 306 283 257 240 232 226
244 249 259 275 302 270 259 84 72 105 68 89 82 224 233 248 272 290 173 306 320 313 316 322 322 322 321 323 323 325 327 327 329 328 328 336 336 327 320 296 268 253 239 226
213 224 259 230 218 289 295 28 43 92 203 187 205 257 252 273 290 244 14 296 305 304 315 311 306 309 316 317 321 327 326 326 327 327 323 329 330 319 314 294 273 258 241 232
147 219 226 124 223 228 202 224 256 110 257 221 201 243 239 259 297 285 262 291 294 274 289 288 291 290 296 304 317 320 318 319 320 326 322 311 313 315 305 297 284 266 245 236
4 21 211 235 249 286 240 255 292 91 246 229 193 236 225 215 217 257 297 283 282 293 300 302 303 297 300 303 314 308 310 308 315 315 312 312 307 313 315 301 283 266 249 232
187 173 224 79 28 293 215 351 156 222 245 240 266 271 233 238 253 257 276 283 280 289 293 296 299 303 300 302 303 296 297 306 310 309 307 310 311 304 306 301 284 257 240 225
280 199 192 184 217 250 234 254 281 240 231 264 258 265 229 251 266 269 275 282 286 283 284 292 289 292 293 297 297 293 297 304 305 307 306 307 305 303 287 278 263 249 227 224
243 205 255 270 266 257 265 271 261 271 271 282 271 250 225 244 261 273 283 286 292 291 288 291 288 285 288 295 296 293 300 304 301 300 299 300 299 300 291 266 259 236 227 212
237 173 214 250 263 268 262 260 263 268 274 266 252 237 245 248 273 285 287 288 288 289 292 290 283 286 287 295 294 297 301 305 297 294 291 289 288 287 287 266 252 246 241 229
222 241 235 250 260 261 272 275 276 261 275 308 320 322 305 278 280 283 279 283 288 289 292 292 290 288 289 294 294 296 300 298 293 293 292 288 288 288 284 280 264 254 251 247